Regional Weather Roundup
Issued by NWS Cleveland, OH

Home | Current Version | Previous Version | Graphics & Text | Print | Product List | Glossary On
Versions: 1 2 3 4 5 6 7 8 9 10 11 12 13 14 15 16 17 18 19 20 21 22 23 24 25 26 27 28 29 30 31 32 33 34 35 36 37 38 39 40 41 42 43 44 45 46 47 48 49 50
000
ASUS41 KCLE 211312
RWRCLE
OHIO REGIONAL WEATHER ROUNDUP
NATIONAL WEATHER SERVICE WILMINGTON, OH
800 AM EST TUE NOV 21 2017

NOTE: "FAIR" INDICATES FEW OR NO CLOUDS BELOW 12,000 FEET WITH NO
SIGNIFICANT WEATHER AND/OR OBSTRUCTIONS TO VISIBILITY.

OHZ001>008-015>018-024>027-034-035-043-044-211400-
   NORTHWEST OHIO

CITY           SKY/WX    TMP DP  RH WIND       PRES   REMARKS
DEFIANCE       FAIR      40  27  59 SW16      29.78S
FINDLAY        FAIR      41  26  55 SW22G28   29.81R
TOLEDO EXPRESS FAIR      41  28  60 SW15G24   29.77R
TOLEDO EXEC    FAIR      41  27  57 SW17G28   29.78S
LIMA           FAIR      39  27  62 S17G25    29.83R
$$

OHZ009>014-019>023-028>033-038-089-211400-
   NORTHEAST OHIO

CITY           SKY/WX    TMP DP  RH WIND       PRES   REMARKS
CLE-HOPKINS    MOCLDY    40  24  53 S13G22    29.85S
CLE-LAKEFRONT  FAIR      43  22  43 S20G29    29.81S
CUY CO. ARPT   PTCLDY    43  23  45 S17       29.82F
LORAIN-ELYRIA  FAIR      42  21  43 SW18G25   29.83S
ASHTABULA      FAIR      39  23  52 S16G23    29.83F
AKRON-CANTON   FAIR      40  23  50 SW16G28   29.88F
WOOSTER        FAIR      37  24  59 SW15G21   29.87F
MANSFIELD      FAIR      41  24  51 SW20G32   29.85F
YOUNGSTOWN     MOCLDY    39  22  50 S12G20    29.88F
$$

OHZ042-051>053-060>062-070>072-077>081-211400-
  SOUTHWEST OHIO

CITY           SKY/WX    TMP DP  RH WIND       PRES   REMARKS
CINC-COVINGTON MOCLDY    41  27  57 S13       29.95S
CINC-LUNKEN    CLOUDY    39  29  67 S12       29.99S
HAMILTON       FAIR      44  27  51 S7G17     29.95F
DAYTON         MOCLDY    39  27  62 S17G24    29.91R
WRIGHT-PAT AFB CLOUDY    41  24  51 S16       29.91F
DAYTON GENERAL FAIR      40  26  57 S14       29.92S
WILMINGTON     FAIR      38  28  67 S13       29.95R
$$

OHZ036-037-039>041-045>050-054>059-063>069-073>076-082>088-211400-
  CENTRAL AND SOUTHEAST OHIO

CITY           SKY/WX    TMP DP  RH WIND       PRES   REMARKS
COLUMBUS       CLOUDY    41  27  57 S14       29.95R
OSU AIRPORT    FAIR      39  27  62 S14       29.92S
BOLTON FIELD   CLEAR     37  27  65 SW13      29.94S
RICKENBACK AFB FAIR      40  27  59 SW20      29.95S
NEWARK         FAIR      37  25  61 SE6       29.94S
MARION         FAIR      38  26  62 S14       29.88R
LANCASTER      FAIR      41  27  57 S7        29.96R
ZANESVILLE     FAIR      38  23  55 S9        29.97S
NEW PHILLY     FAIR      41  23  48 S8        29.96R
$$



USA.gov is the U.S. government's official web portal to all federal, state and local government web resources and services.